カタログに戻る

HULIANWANG DIGUI-132

運用中通信LEO
NORAD 67240·PAYLOAD·🇨🇳 China

打ち上げ Dec 25, 2025 から Wenchang Space Launch Site

Loading…

次のパス (今後24時間)

TLE

最新Source: Space-Track

元期: Sep 14, 2026, 02:10 UTC

1 67240U 25311E   26257.09078088 -.00000073  00000-0  11097-3 0  9995
2 67240  50.0053 157.0362 0000238 306.4302  53.6548 13.29327300 35165

AllMySatでHULIANWANG DIGUI-132をリアルタイム追跡

Download on the App Store